Location: Ch�teau-Arnoux
(44.0814°N, 6.0027°E)
Time: 21:35:01
(UTC+00:00)

Okean O Rocket - Pass Details

Date: 15 November 2019
Orbit: 622 x 646 km, 98.2° (Epoch: 06 December)

Event Time Altitude Azimuth Distance (km) Brightness Sun altitude
Rises 04:57:13 0° 17° (NNE) 2,914 5.1 -16.8°
Reaches altitude 10° 04:59:27 10° 21° (NNE) 2,002 4.3 -16.4°
Maximum altitude 05:03:44 59° 101° (E) 721 2.2 -15.6°
Drops below altitude 10° 05:08:00 10° 181° (S) 1,987 4.3 -14.9°
Sets 05:10:13 0° 185° (S) 2,890 5.1 -14.5°
